FREGAT DEB, 46010

Orbit data source: Space-Track

FREGAT DEB, 46010 is space debris in LEO originally from a launch on Mon, 18 Jul 2011 UTC launched from the Tyuratam Missile And Space Complex (TTMTR). Debris objects in space refer to the collection of defunct objects orbiting the Earth. Examples of debris include non-operational satellites, rocket bodies, and fragments generated from explosions, collisions, or faulty payload assembly.

Loading next visibility...
Identifier
46010, 2011-037HM
Orbit
LEO
Country
Flag of CISCIS
Related business
Manufacturer
Lavochkin
Mission
Spacecraft
Bus & Motor
Unknown
Mass
Unknown
Launch date (UTC)
2011-07-18 (14 years ago)
Launch vehicle
Unknown
Launch site
Tyuratam Missile And Space Complex (TTMTR)
Object type
Payload
Rocket body
Debris
Shape & HBR
Unknown shape, 0.1 m
Radar Cross Section
Small (<0.1 m²)

Expand to show TLE details & history
Last TLE update: 3 weeks ago

TLE from 3 weeks ago
0 FREGAT DEB
1 46010U 11037HM  25273.01321957  .00009563  00000-0  12581+0 0  9999
2 46010  51.3137 211.6063 1874522  77.3868 302.9049  9.76077159181839
Epoch: 2025-09-30T00:19Z
TLE epoch observation values (Epoch: 2025-09-30T00:19:02.170Z)
Latitude
-0.00003°
Longitude
-162.16145°
Altitude
2,193.057 km
Speed
7.067 km/s
True Right ascension
14h 06m 25s
True Declination
0° 00' 00"
Sunlit
Object was in daylight at epoch
Visualization orbit readout
Latitude
Unknown
Longitude
Unknown
Altitude
Unknown
Speed
Unknown
Apparent Right ascension
Unknown
Apparent Declination
Unknown
Sunlit
N/A
Visualization observer readout
Local Sidereal Time
02:56:54
Azimuth
Unknown
Elevation
Unknown
Doppler factor
Unknown
Orbital elements
Apogee altitude
4,604.731 km
Perigee altitude
1,137.202 km
Semi-major axis
9,249.104 km
Eccentricity
0.18745
Inclination
51.3137°
RAAN
211.6063°
Arg. of periapsis
77.3868°
True anomaly
282.69166°
Mean anomaly
302.9049°
Eccentric anomaly
293.01994°
Mean motion
2.44002 °/min
Orbital period
147.54 mins
BSTAR
0.12581
Loading maneuver chart data...
Computing Atmospheric mass density...
Loading historical data...
Loading historical data...
Loading historical data...
Loading historical data...
Loading historical data...
Loading historical data...
Loading historical data...

Documentation

Showing up to 5 results
|